Regional Weather Roundup
Issued by NWS

Home | Current Version | Previous Version | Text Only | Print | Product List | Glossary Off
Versions: 1 2 3 4 5 6 7 8 9 10 11 12 13 14 15 16 17 18 19 20 21 22 23 24 25 26 27 28 29 30 31 32 33 34 35 36 37 38 39 40 41 42 43 44 45 46 47 48 49 50

000
ASUS45 KBOI 210210
RWRID
WEATHER ROUNDUP FOR IDAHO
NATIONAL WEATHER SERVICE BOISE ID
800 PM MDT SAT SEP 20 2014

NOTE: "FAIR" INDICATES FEW OR NO CLOUDS BELOW 12000 FEET
WITH NO SIGNIFICANT WEATHER AND/OR OBSTRUCTIONS TO VISIBILITY

IDZ012-014-210300-
SOUTHWEST IDAHO


CITY           SKY/WX    TMP DP  RH WIND       PRES   REMARKS
BOISE          CLEAR     79  48  33 NW6       30.00S
CALDWELL       CLEAR     77  48  36 NW5       30.00F
MOUNTAIN HOME  CLEAR     75  44  32 W7        30.01S
$$

IDZ016-017-210300-
SOUTHCENTRAL IDAHO


CITY           SKY/WX    TMP DP  RH WIND       PRES   REMARKS
BURLEY         CLEAR     67  46  47 S3        30.07F
JEROME         CLEAR     66  52  60 CALM      30.08S
TWIN FALLS     PTCLDY    65  44  46 SE6       30.08S
$$

IDZ019>023-210300-
SOUTHEAST IDAHO


CITY           SKY/WX    TMP DP  RH WIND       PRES   REMARKS
IDAHO FALLS    CLEAR     66  48  52 CALM      30.15S
POCATELLO      CLEAR     73  46  38 N6        30.12S
REXBURG        CLEAR     68  47  46 CALM      30.16S
$$

IDZ006-010-011-018-031-032-210300-
CENTRAL IDAHO MOUNTAINS


CITY           SKY/WX    TMP DP  RH WIND       PRES   REMARKS
MCCALL         CLEAR     73  39  29 CALM      30.13S
HAILEY         PTCLDY    66  45  45 CALM      30.18S
STANLEY          N/A     62  36  37 S3        30.23R
SALMON         CLEAR     66  45  45 S5        30.08R
CHALLIS        CLEAR     71  37  28 NW9       30.13R
$$

IDZ002-004-006-007-026-210300-
NORTHERN IDAHO


CITY           SKY/WX    TMP DP  RH WIND       PRES   REMARKS
LEWISTON       CLEAR     81  41  24 W6        29.96F
LOWELL           N/A     65  57  75 CALM      29.99R
COEUR D`ALENE  CLEAR     73  45  35 N10       30.06S
MULLAN PASS    CLEAR     60  36  40 VRB5      30.27F
$$


USA.gov is the U.S. government's official web portal to all federal, state and local government web resources and services.